CZ-6A DEB, 54899

Orbit data source: Space-Track

CZ-6A DEB, 54899 is space debris in SSO originally from a launch on Fri, 11 Nov 2022 UTC launched from the Taiyaun Space Center, China (TSC). Debris objects in space refer to the collection of defunct objects orbiting the Earth. Examples of debris include non-operational satellites, rocket bodies, and fragments generated from explosions, collisions, or faulty payload assembly.

Loading next visibility...
Identifier
54899, 2022-151QL
Orbit
SSO
Country
Flag of CNCN / PRC
Related business
Manufacturer
SAST
Mission
Spacecraft
Bus & Motor
Unknown
Mass
Unknown
Launch date (UTC)
2022-11-11 (4 years ago)
Launch vehicle
Unknown
Launch site
Taiyaun Space Center, China (TSC)
Object type
Payload
Rocket body
Debris
Shape & HBR
Unknown shape, 0.1 m
Radar Cross Section
Medium (>0.1 m² and <1 m²)

Expand to show TLE details & history
Last TLE update: 1 day ago

TLE from 1 day ago
0 CZ-6A DEB
1 54899U 22151QL  26234.98312135  .00002270  00000-0  91919-3 0  9998
2 54899  98.7729 255.2252 0027165 116.3676 244.0298 14.28552222193222
Epoch: 2026-08-22T23:35Z
TLE epoch observation values (Epoch: 2026-08-22T23:35:41.684Z)
Latitude
-0.00009°
Longitude
-69.98418°
Altitude
808.078 km
Speed
7.445 km/s
True Right ascension
17h 00m 54s
True Declination
0° 00' 00"
Sunlit
Object was in daylight at epoch
Visualization orbit readout
Latitude
Unknown
Longitude
Unknown
Altitude
Unknown
Speed
Unknown
Apparent Right ascension
Unknown
Apparent Declination
Unknown
Sunlit
N/A
Visualization observer readout
Local Sidereal Time
00:45:37
Azimuth
Unknown
Elevation
Unknown
Doppler factor
Unknown
Orbital elements
Apogee altitude
813.207 km
Perigee altitude
774.242 km
Semi-major axis
7,171.861 km
Eccentricity
0.00272
Inclination
98.7729°
RAAN
255.2252°
Arg. of periapsis
116.3676°
True anomaly
243.75036°
Mean anomaly
244.0298°
Eccentric anomaly
243.89004°
Mean motion
3.57351 °/min
Orbital period
100.74 mins
BSTAR
0.00091919
Loading maneuver chart data...
Computing Atmospheric mass density...
Loading historical data...
Loading historical data...
Loading historical data...
Loading historical data...
Loading historical data...
Loading historical data...
Loading historical data...

Documentation

Showing up to 5 results
|